Chicago Midway, IL

4:53 PM CST on January 17, 2018 (GMT -0600)
Chicago-Midway

Weather History for KMDW - February, 2014

Change the Weather History Date:

Friday, February 28, 2014

  Actual Average Record
Temperature  
Mean Temperature 19 °F 33 °F  
Max Temperature 32 °F 40 °F 64 °F (2016)
Min Temperature 6 °F 26 °F 1 °F (2015)
Degree Days  
Heating Degree Days 46 32  
Month to date heating degree days 1284 1013  
Since 1 July heating degree days 5202 4511  
Cooling Degree Days 0 0  
Month to date cooling degree days 0 0  
Year to date cooling degree days 0 0  
Moisture  
Dew Point 5 °F    
Average Humidity 51    
Maximum Humidity 70    
Minimum Humidity 32    
Precipitation  
Precipitation 0.00 in 0.08 in 1.49 in (2017)
Month to date precipitation 1.43 1.94  
Year to date precipitation 2.49 4.00  
Sea Level Pressure  
Sea Level Pressure 30.16 in    
Wind  
Wind Speed 9 mph (SSE)    
Max Wind Speed 18 mph    
Max Gust Speed 26 mph    
Visibility 10 miles    
Events      
T = Trace of Precipitation, MM = Missing Value Source: NWS Daily Summary

Daily Weather History Graph

Daily Weather History Graph

Search for Another Location

Airport or City:

Trip Planner

Search our weather history database for the weather conditions in past years. The results will help you decide how hot, cold, wet, or windy it might be!

Date:

Astronomy

Feb. 28, 2014 Rise Set
Actual Time 6:27 AM CST 5:40 PM CST
Civil Twilight 5:59 AM CST 6:08 PM CST
Nautical Twilight 5:27 AM CST 6:40 PM CST
Astronomical Twilight 4:55 AM CST 7:12 PM CST
Moon 5:42 AM CST (2/28) 5:17 PM CST (2/28)
Length of Visible Light 12h 08m
Length of Day
11h 12m
Waning Crescent, 1% of the Moon is Illuminated
Feb 28
Waning Crescent
Mar 1
New
Mar 8
First Quarter
Mar 16
Full
Mar 23
Last Quarter

Hourly Weather History & Observations

Time (CST) Temp. Windchill Dew Point Humidity Pressure Visibility Wind Dir Wind Speed Gust Speed Precip Events Conditions
12:51 AM 7.0 °F - -9.9 °F 46% 30.27 in 10.0 mi Calm Calm - N/A   Clear
1:51 AM 7.0 °F 0.1 °F -8.0 °F 51% 30.26 in 10.0 mi ESE 3.5 mph - N/A   Clear
2:51 AM 7.0 °F -3.3 °F -6.0 °F 55% 30.25 in 10.0 mi SE 5.8 mph - N/A   Clear
3:51 AM 7.0 °F -3.3 °F -5.1 °F 58% 30.25 in 10.0 mi SSE 5.8 mph - N/A   Clear
4:51 AM 7.0 °F -6.6 °F -4.0 °F 61% 30.26 in 10.0 mi SSE 9.2 mph - N/A   Partly Cloudy
5:51 AM 7.0 °F -7.5 °F -2.0 °F 67% 30.26 in 10.0 mi SE 10.4 mph - N/A   Scattered Clouds
6:51 AM 7.0 °F -6.6 °F -0.9 °F 70% 30.26 in 10.0 mi SE 9.2 mph - N/A   Mostly Cloudy
7:51 AM 9.0 °F -6.6 °F -0.9 °F 64% 30.28 in 10.0 mi SSE 12.7 mph - N/A   Mostly Cloudy
8:51 AM 10.9 °F -3.4 °F -0.0 °F 61% 30.26 in 10.0 mi SSE 11.5 mph - N/A   Overcast
9:51 AM 14.0 °F 0.5 °F 1.0 °F 56% 30.25 in 10.0 mi SSE 11.5 mph 21.9 mph N/A   Mostly Cloudy
10:51 AM 17.1 °F 3.6 °F 1.9 °F 52% 30.23 in 10.0 mi South 12.7 mph - N/A   Overcast
11:51 AM 19.9 °F 7.9 °F 3.0 °F 48% 30.20 in 10.0 mi SSE 11.5 mph - N/A   Mostly Cloudy
12:51 PM 24.1 °F 12.5 °F 5.0 °F 44% 30.16 in 10.0 mi SSE 12.7 mph - N/A   Mostly Cloudy
1:51 PM 25.0 °F 13.6 °F 7.0 °F 46% 30.11 in 10.0 mi SSE 12.7 mph - N/A   Mostly Cloudy
2:51 PM 27.0 °F 16.1 °F 9.0 °F 47% 30.09 in 10.0 mi SSE 12.7 mph 20.7 mph N/A   Mostly Cloudy
3:51 PM 28.0 °F 17.0 °F 10.0 °F 47% 30.06 in 10.0 mi South 13.8 mph - N/A   Mostly Cloudy
4:51 PM 30.0 °F 21.1 °F 12.0 °F 47% 30.05 in 10.0 mi SSE 10.4 mph 19.6 mph N/A   Mostly Cloudy
5:51 PM 30.0 °F 21.1 °F 12.0 °F 47% 30.04 in 10.0 mi SSE 10.4 mph - N/A   Mostly Cloudy
6:51 PM 30.0 °F 21.7 °F 12.9 °F 49% 30.05 in 10.0 mi SSE 9.2 mph 19.6 mph N/A   Mostly Cloudy
7:51 PM 30.0 °F 24.1 °F 14.0 °F 51% 30.05 in 10.0 mi SSE 5.8 mph - N/A   Overcast
8:51 PM 28.9 °F 21.9 °F 14.0 °F 54% 30.04 in 10.0 mi South 6.9 mph - N/A   Overcast
9:51 PM 30.9 °F 25.2 °F 16.0 °F 54% 30.05 in 10.0 mi SSE 5.8 mph - N/A   Overcast
10:51 PM 30.9 °F 25.2 °F 16.0 °F 54% 30.05 in 10.0 mi South 5.8 mph - N/A   Overcast
11:51 PM 32.0 °F 25.6 °F 16.0 °F 52% 30.04 in 10.0 mi SSW 6.9 mph - N/A   Overcast